カタログに戻る

COSMOS 942

運用中軍事LEO
NORAD 10288·PAYLOAD·🇷🇺 Russia

打ち上げ Aug 24, 1977 から Plesetsk Cosmodrome

Loading…

次のパス (今後24時間)

TLE

最新Source: Space-Track

元期: Sep 14, 2026, 06:11 UTC

1 10288U 77079D   26257.25809972 -.00000004  00000-0  86017-4 0  9994
2 10288  74.0259 186.2103 0044499  17.7764 136.2681 12.42259986207409

AllMySatでCOSMOS 942をリアルタイム追跡

Download on the App Store